Romeoville, IL

5:04 PM CDT on May 26, 2018 (GMT -0500)
Lewis University

Weather History for KLOT - May, 2014

Change the Weather History Date:

Sunday, May 25, 2014

  Actual Average Record
Temperature  
Mean Temperature 67 °F 63 °F  
Max Temperature 83 °F 74 °F 89 °F (2016)
Min Temperature 50 °F 53 °F 32 °F (1992)
Degree Days  
Heating Degree Days 0 4  
Month to date heating degree days 201 171  
Since 1 July heating degree days 7319 6165  
Cooling Degree Days 2 2  
Month to date cooling degree days 53 35  
Year to date cooling degree days 53 40  
Growing Degree Days 16 (Base 50)    
Moisture  
Dew Point 47 °F    
Average Humidity 53    
Maximum Humidity 89    
Minimum Humidity 25    
Precipitation  
Precipitation 0.00 in 0.14 in 2.31 in (2011)
Month to date precipitation 3.25 3.44  
Year to date precipitation 14.03 13.88  
Sea Level Pressure  
Sea Level Pressure 30.10 in    
Wind  
Wind Speed 4 mph (SSE)    
Max Wind Speed 13 mph    
Max Gust Speed 16 mph    
Visibility 10 miles    
Events      
T = Trace of Precipitation, MM = Missing Value Source: NWS Daily Summary

Daily Weather History Graph

Daily Weather History Graph

Search for Another Location

Airport or City:

Astronomy

May. 25, 2014 Rise Set
Actual Time 5:24 AM CDT 8:14 PM CDT
Civil Twilight 4:51 AM CDT 8:47 PM CDT
Nautical Twilight 4:10 AM CDT 9:28 PM CDT
Astronomical Twilight 3:23 AM CDT 10:16 PM CDT
Moon 3:31 AM CDT (5/25) 5:12 PM CDT (5/25)
Length of Visible Light 15h 55m
Length of Day
14h 49m
Waning Crescent, 10% of the Moon is Illuminated
May 25
Waning Crescent
May 28
New
Jun 5
First Quarter
Jun 12
Full
Jun 19
Last Quarter

Hourly Weather History & Observations

Time (CDT) Temp. Dew Point Humidity Pressure Visibility Wind Dir Wind Speed Gust Speed Precip Events Conditions
12:15 AM 52.9 °F 44.2 °F 72% 30.14 in 10.0 mi ENE 4.6 mph - N/A   Clear
12:35 AM 52.7 °F 44.2 °F 73% 30.14 in 10.0 mi ENE 3.5 mph - N/A   Clear
12:55 AM 54.0 °F 44.6 °F 71% 30.14 in 10.0 mi Calm Calm - N/A   Clear
1:15 AM 52.9 °F 44.6 °F 73% 30.14 in 10.0 mi ENE 3.5 mph - N/A   Clear
1:35 AM 53.2 °F 44.6 °F 72% 30.14 in 10.0 mi Calm Calm - N/A   Clear
1:55 AM 51.4 °F 44.6 °F 77% 30.14 in 10.0 mi Calm Calm - N/A   Clear
2:15 AM 51.1 °F 44.6 °F 78% 30.14 in 10.0 mi Calm Calm - N/A   Clear
2:35 AM 51.3 °F 44.8 °F 78% 30.13 in 10.0 mi Calm Calm - N/A   Clear
2:55 AM 50.5 °F 44.8 °F 81% 30.13 in 10.0 mi NE 3.5 mph - N/A   Clear
3:15 AM 50.9 °F 45.0 °F 80% 30.13 in 10.0 mi NE 3.5 mph - N/A   Clear
3:35 AM 50.9 °F 45.5 °F 82% 30.13 in 10.0 mi NE 4.6 mph - N/A   Clear
3:55 AM 50.0 °F 45.7 °F 85% 30.14 in 10.0 mi Calm Calm - N/A   Clear
4:15 AM 50.0 °F 45.5 °F 85% 30.14 in 10.0 mi NNE 3.5 mph - N/A   Clear
4:35 AM 49.8 °F 46.0 °F 87% 30.14 in 10.0 mi Calm Calm - N/A   Clear
4:55 AM 50.2 °F 45.9 °F 85% 30.14 in 10.0 mi NE 4.6 mph - N/A   Clear
5:15 AM 49.3 °F 45.5 °F 87% 30.14 in 10.0 mi Calm Calm - N/A   Clear
5:35 AM 49.6 °F 45.7 °F 86% 30.14 in 10.0 mi Calm Calm - N/A   Clear
5:55 AM 50.0 °F 46.4 °F 87% 30.14 in 10.0 mi Calm Calm - N/A   Clear
6:15 AM 50.7 °F 47.5 °F 89% 30.14 in 10.0 mi Calm Calm - N/A   Clear
6:35 AM 53.1 °F 48.9 °F 86% 30.15 in 10.0 mi Calm Calm - N/A   Clear
6:55 AM 55.0 °F 48.9 °F 80% 30.15 in 10.0 mi Calm Calm - N/A   Clear
7:15 AM 57.4 °F 50.9 °F 79% 30.15 in 10.0 mi Calm Calm - N/A   Clear
7:35 AM 60.3 °F 50.4 °F 70% 30.16 in 10.0 mi SSE 3.5 mph - N/A   Clear
7:55 AM 61.3 °F 51.3 °F 69% 30.15 in 10.0 mi SSE 3.5 mph - N/A   Clear
8:15 AM 64.0 °F 52.0 °F 65% 30.15 in 10.0 mi SE 3.5 mph - N/A   Clear
8:35 AM 65.7 °F 50.4 °F 58% 30.15 in 10.0 mi SSE 4.6 mph - N/A   Clear
8:55 AM 67.6 °F 50.2 °F 54% 30.15 in 10.0 mi South 4.6 mph - N/A   Clear
9:15 AM 69.6 °F 50.4 °F 50% 30.15 in 10.0 mi SSE 4.6 mph - N/A   Clear
9:55 AM 73.4 °F 50.5 °F 45% 30.15 in 10.0 mi SSW 4.6 mph - N/A   Clear
10:15 AM 73.9 °F 47.1 °F 38% 30.14 in 10.0 mi South 3.5 mph - N/A   Clear
10:35 AM 75.2 °F 47.3 °F 37% 30.14 in 10.0 mi South 4.6 mph - N/A   Clear
10:55 AM 75.7 °F 45.5 °F 34% 30.14 in 10.0 mi South 3.5 mph - N/A   Clear
11:15 AM 76.6 °F 45.0 °F 32% 30.14 in 10.0 mi SE 5.8 mph - N/A   Clear
11:55 AM 77.9 °F 46.0 °F 32% 30.13 in 10.0 mi SW 10.4 mph - N/A   Clear
12:15 PM 78.1 °F 46.8 °F 33% 30.13 in 10.0 mi SSW 9.2 mph - N/A   Clear
12:35 PM 78.3 °F 45.0 °F 31% 30.12 in 10.0 mi ESE 5.8 mph - N/A   Clear
12:55 PM 78.6 °F 44.8 °F 30% 30.12 in 10.0 mi South 5.8 mph - N/A   Clear
1:15 PM 78.8 °F 44.8 °F 30% 30.11 in 10.0 mi South 6.9 mph - N/A   Clear
1:55 PM 80.1 °F 44.1 °F 28% 30.11 in 10.0 mi South 8.1 mph - N/A   Clear
2:15 PM 80.1 °F 44.1 °F 28% 30.10 in 10.0 mi South 4.6 mph - N/A   Clear
2:35 PM 80.6 °F 44.8 °F 28% 30.09 in 10.0 mi Calm Calm - N/A   Clear
2:55 PM 80.4 °F 41.4 °F 25% 30.08 in 10.0 mi SE 5.8 mph - N/A   Clear
3:15 PM 81.5 °F 44.1 °F 27% 30.07 in 10.0 mi South 6.9 mph - N/A   Clear
3:35 PM 82.0 °F 43.7 °F 26% 30.06 in 10.0 mi SW 12.7 mph - N/A   Clear
3:55 PM 81.9 °F 44.1 °F 26% 30.06 in 10.0 mi South 10.4 mph 16.1 mph N/A   Clear
4:15 PM 81.7 °F 44.1 °F 26% 30.05 in 10.0 mi South 3.5 mph - N/A   Clear
4:35 PM 81.7 °F 43.7 °F 26% 30.04 in 10.0 mi South 6.9 mph - N/A   Clear
4:55 PM 82.4 °F 44.2 °F 26% 30.04 in 10.0 mi South 9.2 mph - N/A   Clear
5:15 PM 82.4 °F 43.0 °F 25% 30.03 in 10.0 mi South 4.6 mph 11.5 mph N/A   Clear
5:35 PM 82.9 °F 43.3 °F 25% 30.02 in 10.0 mi South 9.2 mph - N/A   Clear
5:55 PM 80.6 °F 45.5 °F 29% 30.02 in 10.0 mi South 10.4 mph - N/A   Clear
6:15 PM 81.1 °F 46.8 °F 30% 30.02 in 10.0 mi South 5.8 mph - N/A   Clear
6:35 PM 80.8 °F 46.2 °F 30% 30.02 in 10.0 mi South 6.9 mph - N/A   Clear
6:55 PM 79.0 °F 47.1 °F 32% 30.01 in 10.0 mi South 5.8 mph - N/A   Clear
7:15 PM 77.2 °F 48.0 °F 36% 30.01 in 10.0 mi South 6.9 mph - N/A   Clear
7:35 PM 76.5 °F 46.9 °F 35% 30.01 in 10.0 mi South 6.9 mph - N/A   Clear
7:55 PM 74.5 °F 47.8 °F 39% 30.01 in 10.0 mi SSE 5.8 mph - N/A   Clear
8:15 PM 75.0 °F 46.0 °F 36% 30.01 in 10.0 mi SSE 5.8 mph - N/A   Clear
8:35 PM 73.4 °F 46.6 °F 38% 30.01 in 10.0 mi SSE 6.9 mph - N/A   Clear
8:55 PM 71.6 °F 49.1 °F 45% 30.02 in 10.0 mi SSE 6.9 mph - N/A   Clear
9:15 PM 69.8 °F 49.5 °F 48% 30.03 in 10.0 mi SSE 4.6 mph - N/A   Clear
9:35 PM 69.1 °F 50.2 °F 51% 30.04 in 10.0 mi South 9.2 mph - N/A   Clear
9:55 PM 69.3 °F 50.0 °F 50% 30.05 in 10.0 mi South 8.1 mph - N/A   Clear
10:15 PM 69.1 °F 50.9 °F 52% 30.05 in 10.0 mi South 9.2 mph - N/A   Clear
10:35 PM 69.1 °F 51.3 °F 53% 30.05 in 10.0 mi SSW 10.4 mph - N/A   Clear
10:55 PM 68.9 °F 52.0 °F 55% 30.05 in 10.0 mi SSW 9.2 mph - N/A   Clear
11:15 PM 68.2 °F 52.5 °F 57% 30.05 in 10.0 mi SSW 8.1 mph - N/A   Clear
11:35 PM 69.3 °F 53.2 °F 57% 30.05 in 10.0 mi SSW 11.5 mph - N/A   Clear
11:55 PM 70.3 °F 54.0 °F 56% 30.06 in 10.0 mi SSW 9.2 mph - N/A   Clear